• In Uzbekistan
  • List of Countries
  • For 7 days
  • Water Temperature
  • Satellite Maps
  • Weather Map
  • Weather Widgets
  • user-avatar
    Login

    Hourly Weather Neuquén

    Today, 27 June, Tuesday

    Time Temperature Precipitation Wind Pressure Humidity
    00:00 +7°C° 0 mm 4 mps 738 mmHg 76%
    01:00 +7°C° 0 mm 3 mps 738 mmHg 75%
    02:00 +7°C° 0 mm 3 mps 739 mmHg 75%
    03:00 +7°C° 0 mm 3 mps 739 mmHg 76%
    04:00 +7°C° 0 mm 3 mps 739 mmHg 76%
    05:00 +5°C° 0 mm 3 mps 740 mmHg 76%
    06:00 +6°C° 0 mm 2 mps 740 mmHg 77%
    07:00 +7°C° 0 mm 1 mps 740 mmHg 77%
    08:00 +7°C° 0 mm 1 mps 740 mmHg 74%
    09:00 +8°C° 0 mm 1 mps 740 mmHg 71%
    10:00 +9°C° 0 mm 1 mps 741 mmHg 68%
    11:00 +10°C° 0 mm 1 mps 740 mmHg 66%
    12:00 +10°C° 0 mm 1 mps 740 mmHg 65%
    13:00 +11°C° 0 mm 1 mps 740 mmHg 63%
    14:00 +11°C° 0 mm 1 mps 739 mmHg 65%
    15:00 +10°C° 0 mm 1 mps 739 mmHg 67%
    16:00 +10°C° 0 mm 1 mps 738 mmHg 69%
    17:00 +10°C° 0 mm 1 mps 738 mmHg 72%
    18:00 +8°C° 0 mm 2 mps 738 mmHg 75%
    19:00 +8°C° 0 mm 2 mps 738 mmHg 78%
    20:00 +7°C° 0 mm 2 mps 738 mmHg 80%
    21:00 +7°C° 0 mm 3 mps 738 mmHg 83%
    22:00 +7°C° 0 mm 3 mps 738 mmHg 85%
    23:00 +7°C° 0 mm 3 mps 738 mmHg 85%

    Tomorrow, 28 June, Wednesday

    Time Temperature Precipitation Wind Pressure Humidity
    00:00 +7°C° 0 mm 3 mps 738 mmHg 86%
    01:00 +5°C° 0 mm 3 mps 737 mmHg 87%
    02:00 +5°C° 0 mm 3 mps 737 mmHg 86%
    03:00 +7°C° 0 mm 3 mps 737 mmHg 85%
    04:00 +7°C° 0 mm 3 mps 736 mmHg 85%
    05:00 +7°C° 0 mm 3 mps 736 mmHg 84%
    06:00 +5°C° 0 mm 3 mps 736 mmHg 84%
    07:00 +5°C° 0 mm 3 mps 736 mmHg 84%
    08:00 +7°C° 0 mm 4 mps 736 mmHg 75%
    09:00 +10°C° 0 mm 4 mps 736 mmHg 66%
    10:00 +12°C° 0 mm 5 mps 736 mmHg 58%
    11:00 +13°C° 0 mm 5 mps 736 mmHg 53%
    12:00 +14°C° 0 mm 5 mps 735 mmHg 48%
    13:00 +15°C° 0 mm 5 mps 735 mmHg 43%
    14:00 +14°C° 0 mm 5 mps 734 mmHg 46%
    15:00 +13°C° 0 mm 4 mps 734 mmHg 49%
    16:00 +12°C° 0 mm 3 mps 734 mmHg 52%
    17:00 +11°C° 0 mm 3 mps 734 mmHg 53%
    18:00 +10°C° 0 mm 3 mps 734 mmHg 55%
    19:00 +10°C° 0 mm 3 mps 734 mmHg 56%
    20:00 +9°C° 0 mm 3 mps 734 mmHg 56%
    21:00 +8°C° 0 mm 4 mps 734 mmHg 56%
    22:00 +8°C° 0 mm 4 mps 734 mmHg 56%
    23:00 +8°C° 0 mm 4 mps 734 mmHg 57%

    Day after tomorrow, 29 June, Thursday

    Time Temperature Precipitation Wind Pressure Humidity
    00:00 +8°C° 0 mm 4 mps 733 mmHg 59%
    01:00 +7°C° 0 mm 4 mps 733 mmHg 60%
    02:00 +7°C° 0 mm 4 mps 733 mmHg 58%
    03:00 +7°C° 0 mm 5 mps 732 mmHg 56%
    04:00 +7°C° 0 mm 5 mps 732 mmHg 54%
    05:00 +8°C° 0 mm 5 mps 732 mmHg 51%
    06:00 +8°C° 0 mm 6 mps 733 mmHg 49%
    07:00 +8°C° 0 mm 6 mps 733 mmHg 46%
    08:00 +10°C° 0 mm 8 mps 733 mmHg 42%
    09:00 +12°C° 0 mm 9 mps 733 mmHg 38%
    10:00 +16°C° 0 mm 10 mps 733 mmHg 35%
    11:00 +16°C° 0 mm 10 mps 733 mmHg 36%
    12:00 +17°C° 0 mm 9 mps 733 mmHg 38%
    13:00 +17°C° 0 mm 8 mps 733 mmHg 39%
    14:00 +16°C° 0.1 mm 7 mps 733 mmHg 45%
    15:00 +15°C° 0.1 mm 5 mps 733 mmHg 50%
    16:00 +14°C° 0.1 mm 4 mps 733 mmHg 56%
    17:00 +14°C° 0 mm 4 mps 734 mmHg 57%
    18:00 +13°C° 0 mm 3 mps 734 mmHg 58%
    19:00 +13°C° 0 mm 3 mps 735 mmHg 60%
    20:00 +12°C° 0.2 mm 4 mps 735 mmHg 61%
    21:00 +12°C° 0.2 mm 4 mps 736 mmHg 62%
    22:00 +10°C° 0.2 mm 5 mps 736 mmHg 63%
    23:00 +11°C° 0.8 mm 4 mps 736 mmHg 66%

    30 June, Friday

    Time Temperature Precipitation Wind Pressure Humidity
    00:00 +10°C° 0.8 mm 4 mps 737 mmHg 68%
    01:00 +10°C° 0.8 mm 4 mps 737 mmHg 70%
    02:00 +10°C° 1 mm 3 mps 737 mmHg 74%
    03:00 +9°C° 1 mm 3 mps 737 mmHg 77%
    04:00 +9°C° 1 mm 2 mps 737 mmHg 80%
    05:00 +9°C° 0.2 mm 2 mps 738 mmHg 81%
    06:00 +10°C° 0.2 mm 1 mps 738 mmHg 82%
    07:00 +10°C° 0.2 mm 1 mps 739 mmHg 83%
    08:00 +10°C° 0.1 mm 1 mps 739 mmHg 80%
    09:00 +10°C° 0.1 mm 2 mps 739 mmHg 76%
    10:00 +12°C° 0.1 mm 2 mps 739 mmHg 72%
    11:00 +13°C° 0 mm 2 mps 739 mmHg 69%
    12:00 +13°C° 0 mm 2 mps 739 mmHg 66%
    13:00 +13°C° 0 mm 3 mps 738 mmHg 62%
    14:00 +14°C° 0 mm 2 mps 738 mmHg 64%
    15:00 +13°C° 0 mm 2 mps 738 mmHg 66%
    16:00 +13°C° 0 mm 2 mps 738 mmHg 68%
    17:00 +11°C° 0 mm 3 mps 739 mmHg 70%
    18:00 +11°C° 0 mm 3 mps 739 mmHg 72%
    19:00 +10°C° 0 mm 3 mps 739 mmHg 75%
    20:00 +10°C° 0 mm 4 mps 740 mmHg 75%
    21:00 +8°C° 0 mm 4 mps 740 mmHg 76%
    22:00 +8°C° 0 mm 4 mps 740 mmHg 77%
    23:00 +9°C° 0 mm 3 mps 740 mmHg 78%

    1 July, Saturday

    Time Temperature Precipitation Wind Pressure Humidity
    00:00 +9°C° 0 mm 3 mps 740 mmHg 78%
    01:00 +8°C° 0 mm 3 mps 739 mmHg 79%
    02:00 +8°C° 0 mm 3 mps 739 mmHg 79%
    03:00 +8°C° 0 mm 2 mps 739 mmHg 80%
    04:00 +8°C° 0 mm 2 mps 739 mmHg 80%
    05:00 +8°C° 0 mm 3 mps 739 mmHg 80%
    06:00 +8°C° 0 mm 3 mps 739 mmHg 80%
    07:00 +8°C° 0 mm 3 mps 739 mmHg 79%
    08:00 +8°C° 0 mm 4 mps 739 mmHg 71%
    09:00 +11°C° 0 mm 4 mps 739 mmHg 63%
    10:00 +13°C° 0 mm 5 mps 739 mmHg 54%
    11:00 +14°C° 0 mm 5 mps 738 mmHg 51%
    12:00 +15°C° 0 mm 6 mps 737 mmHg 47%
    13:00 +16°C° 0 mm 7 mps 736 mmHg 43%
    14:00 +15°C° 0 mm 6 mps 736 mmHg 47%
    15:00 +14°C° 0 mm 5 mps 736 mmHg 52%
    16:00 +13°C° 0 mm 5 mps 736 mmHg 56%
    17:00 +13°C° 0 mm 5 mps 736 mmHg 61%
    18:00 +12°C° 0 mm 5 mps 736 mmHg 66%
    19:00 +10°C° 0 mm 5 mps 736 mmHg 71%
    20:00 +9°C° 0 mm 5 mps 735 mmHg 72%
    21:00 +9°C° 0 mm 5 mps 735 mmHg 73%
    22:00 +9°C° 0 mm 5 mps 735 mmHg 75%
    23:00 +10°C° 0 mm 4 mps 734 mmHg 76%

    2 July, Sunday

    Time Temperature Precipitation Wind Pressure Humidity
    00:00 +8°C° 0 mm 4 mps 734 mmHg 77%
    01:00 +8°C° 0 mm 4 mps 734 mmHg 78%
    02:00 +8°C° 0 mm 4 mps 734 mmHg 80%
    03:00 +9°C° 0 mm 3 mps 733 mmHg 82%
    04:00 +8°C° 0 mm 3 mps 733 mmHg 83%
    05:00 +8°C° 0 mm 3 mps 733 mmHg 84%
    06:00 +8°C° 0 mm 2 mps 733 mmHg 84%
    07:00 +8°C° 0 mm 2 mps 733 mmHg 84%
    08:00 +10°C° 0 mm 3 mps 733 mmHg 76%
    09:00 +12°C° 0 mm 3 mps 734 mmHg 67%
    10:00 +14°C° 0 mm 3 mps 734 mmHg 58%
    11:00 +15°C° 0 mm 4 mps 733 mmHg 54%
    12:00 +17°C° 0 mm 4 mps 732 mmHg 49%
    13:00 +18°C° 0 mm 4 mps 732 mmHg 45%
    14:00 +17°C° 0 mm 4 mps 732 mmHg 49%
    15:00 +15°C° 0 mm 4 mps 731 mmHg 53%
    16:00 +14°C° 0 mm 3 mps 731 mmHg 57%
    17:00 +14°C° 0 mm 4 mps 731 mmHg 62%
    18:00 +13°C° 0 mm 4 mps 731 mmHg 67%
    19:00 +12°C° 0 mm 5 mps 731 mmHg 72%
    20:00 +12°C° 0 mm 5 mps 730 mmHg 74%
    21:00 +12°C° 0 mm 5 mps 730 mmHg 77%
    22:00 +12°C° 0 mm 5 mps 730 mmHg 79%
    23:00 +12°C° 0 mm 5 mps 729 mmHg 80%
    Show more